TimeEDT,TemperatureF,Dew PointF,Humidity,Sea Level PressureIn,VisibilityMPH,Wind Direction,Wind SpeedMPH,Gust SpeedMPH,PrecipitationIn,Events,Conditions,WindDirDegrees,DateUTC
12:53 AM,43.0,39.0,86,30.11,10.0,Calm,Calm,-,N/A,,Clear,0,2012-10-22 04:53:00
1:53 AM,43.0,39.9,89,30.11,10.0,Calm,Calm,-,N/A,,Clear,0,2012-10-22 05:53:00
2:53 AM,43.0,39.9,89,30.09,10.0,Calm,Calm,-,N/A,,Clear,0,2012-10-22 06:53:00
3:53 AM,41.0,39.0,93,30.11,9.0,NNE,3.5,-,N/A,,Clear,30,2012-10-22 07:53:00
4:53 AM,41.0,39.0,93,30.10,9.0,Calm,Calm,-,N/A,,Clear,0,2012-10-22 08:53:00
5:53 AM,39.9,37.9,93,30.10,9.0,Calm,Calm,-,N/A,,Clear,0,2012-10-22 09:53:00
6:53 AM,39.9,37.9,93,30.11,8.0,Calm,Calm,-,N/A,,Clear,0,2012-10-22 10:53:00
7:53 AM,39.9,37.9,93,30.11,9.0,Calm,Calm,-,N/A,,Clear,0,2012-10-22 11:53:00
8:53 AM,43.0,41.0,93,30.11,7.0,Calm,Calm,-,N/A,,Clear,0,2012-10-22 12:53:00
9:53 AM,48.9,45.0,86,30.12,7.0,Calm,Calm,-,N/A,,Mostly Cloudy,0,2012-10-22 13:53:00
10:53 AM,57.0,48.0,72,30.11,10.0,WSW,4.6,-,N/A,,Clear,240,2012-10-22 14:53:00
11:53 AM,63.0,50.0,63,30.10,10.0,SSW,4.6,-,N/A,,Partly Cloudy,200,2012-10-22 15:53:00
1:53 PM,68.0,52.0,56,30.06,10.0,South,5.8,-,N/A,,Clear,180,2012-10-22 17:53:00
2:53 PM,70.0,53.1,55,30.04,10.0,SSW,10.4,-,N/A,,Partly Cloudy,200,2012-10-22 18:53:00
3:53 PM,71.1,54.0,55,30.03,10.0,South,6.9,-,N/A,,Mostly Cloudy,190,2012-10-22 19:53:00
4:53 PM,71.1,54.0,55,30.02,10.0,SW,10.4,-,N/A,,Overcast,230,2012-10-22 20:53:00
5:53 PM,69.1,55.0,61,30.00,10.0,South,6.9,-,N/A,,Clear,190,2012-10-22 21:53:00
6:53 PM,66.9,55.0,66,29.99,10.0,South,8.1,-,N/A,,Partly Cloudy,190,2012-10-22 22:53:00
7:53 PM,66.0,55.9,70,30.01,10.0,WSW,4.6,-,N/A,,Mostly Cloudy,250,2012-10-22 23:53:00
9:53 PM,62.1,57.0,84,30.00,10.0,SSE,3.5,-,N/A,,Mostly Cloudy,150,2012-10-23 01:53:00
10:53 PM,63.0,57.0,81,29.98,10.0,South,5.8,-,N/A,,Mostly Cloudy,170,2012-10-23 02:53:00
11:53 PM,62.1,57.0,84,29.99,9.0,South,8.1,-,0.03,Rain,Light Rain,190,2012-10-23 03:53:00